Weather Roundup
Issued by NWS Springfield, MO

Home | Current Version | Previous Version | Text Only | Print | Product List | Glossary On
Versions: 1 2 3 4 5 6 7 8 9 10 11 12 13 14 15 16 17 18 19 20 21 22 23 24 25 26 27 28 29 30 31 32 33 34 35 36 37 38 39 40 41 42 43 44 45 46 47 48 49 50
000
NZUS99 KSGF 041910
HRRSGF

HOURLY WEATHER
NATIONAL WEATHER SERVICE SPRINGFIELD MO
200 PM CDT FRI SEP 04 2015

......SGF CWA......

CITY           SKY/WX    TMP DP  RH WIND       PRES   REMARKS
SPRINGFIELD    SUNNY     88  66  48 S8        30.03F HX  90
WEST PLAINS    PTSUNNY   86  67  52 SW5       30.06F
ROLLA          MOSUNNY   91  66  43 VRB7      30.02F HX  93
OSAGE BEACH    MOSUNNY   91  64  40 SE7       30.02F HX  93
BRANSON        PTSUNNY   86  68  54 S7        30.05F

......SURROUNDING SGF CWA......

CITY           SKY/WX    TMP DP  RH WIND       PRES   REMARKS
CHANUTE        MOSUNNY   88  70  55 S14G22    29.99F HX  93
PARSONS        MOSUNNY   88  72  58 S9G17     29.99F HX  94
COFFEYVILLE    MOSUNNY   89  72  56 S13       29.98F HX  96
EMPORIA        SUNNY     90  66  45 S21       29.96F HX  92
GROVE OK       MOSUNNY   90  68  48 S8        30.01F HX  93
ROGERS AR      PTSUNNY   86  68  54 S8        30.05F
SILOAM SPRINGS PTSUNNY   88  66  48 S9        30.01F HX  90
HARRISON AR    MOSUNNY   89  67  47 SE8       30.05F HX  92
NEAR YELLVILLE MOSUNNY   91  66  43 SE5       30.01F HX  94

......KANSAS AND MISSOURI......

CITY           SKY/WX    TMP DP  RH WIND       PRES   REMARKS
KANSAS CTY INT MOSUNNY   92  67  43 S15G23    29.97F HX  95
DOWNTOWN KC    SUNNY     92  68  45 S12G18    29.95F HX  96
COLUMBIA       MOSUNNY   90  70  51 S8        30.01F HX  95
SEDALIA        MOSUNNY   93  67  42 SW7       30.01F HX  96
ST JOSEPH      SUNNY     90  70  51 S13       29.94F HX  95
ST LOUIS       MOSUNNY   94  66  39 VRB5      30.01F HX  97
SPIRIT OF STL  PTSUNNY   91  70  49 S6        29.99F HX  96
KIRKSVILLE     SUNNY     90  66  45 S6        30.00F HX  92
WICHITA        MOSUNNY   92  65  40 S17G26    29.93F HX  94
TOPEKA         SUNNY     91  66  43 S16G23    29.95S HX  93
OLATHE         SUNNY     87  68  52 S14       29.98F HX  90

......TENNESSEE......

CITY           SKY/WX    TMP DP  RH WIND       PRES   REMARKS
MEMPHIS        PTSUNNY   92  70  48 SE13G18   30.00F HX  97
NASHVILLE      PTSUNNY   95  62  33 VRB6      30.03F HX  96

......ARKANSAS.......

CITY           SKY/WX    TMP DP  RH WIND       PRES   REMARKS
FAYETTEVILLE   PTSUNNY   86  69  56 S8        30.04S HX  90
FT SMITH       MOSUNNY   91  67  44 NE6       29.97F HX  94
LITTLE ROCK    MOSUNNY   94  67  41 E12       29.98F HX  97

......OKLAHOMA.......

CITY           SKY/WX    TMP DP  RH WIND       PRES   REMARKS
TULSA          PTSUNNY   91  71  51 S12       29.96F HX  97
PONCA CITY     MOSUNNY   92  68  45 S9G20     29.94F HX  96
MCALESTER      MOSUNNY   92  70  48 VRB7      29.98F HX  97
OKLAHOMA CITY  PTSUNNY   91  67  44 S12G22    29.96F HX  94

......IOWA............

CITY           SKY/WX    TMP DP  RH WIND       PRES   REMARKS
DES MOINES     PTSUNNY   90  70  51 S14       29.94F HX  95
QUAD CITIES    MOSUNNY   91  69  48 CALM      29.98F HX  96

......ILLINOIS........

CITY           SKY/WX    TMP DP  RH WIND       PRES   REMARKS
QUINCY         MOSUNNY   92  65  40 SW5       30.00F HX  94
CHICAGO        MOSUNNY   84  69  60 E6        30.00F



USA.gov is the U.S. government's official web portal to all federal, state and local government web resources and services.